Overview Statistics Trail Chart Weather Telemetry Raw packets
 

This is the latest recevied weather packets stored in our database for station/object AB4BJ-10. If no packets are shown the sender has not sent any weather packets the latest 10 day(s).

<< 80 81 82 83 84 85 86 >>
Time Temp. Humidity Pressure Rain* Wind** Luminosity Snow
1788045889 25° C 97% 1014.8 hPa 0 mm - - -
1788045588 25° C 97% 1014.7 hPa 0 mm - - -
1788045437 25° C 97% 1014.7 hPa 0 mm - - -
1788045288 25° C 97% 1014.7 hPa 0 mm - - -
1788045055 25° C 97% 1014.6 hPa 0 mm - - -
1788044988 25° C 97% 1014.6 hPa 0 mm - - -
1788044840 25° C 96% 1014.6 hPa 0 mm - - -
1788044687 25° C 96% 1014.6 hPa 0 mm - - -
1788044387 25° C 97% 1014.6 hPa 0 mm - - -
1788044159 25° C 97% 1014.6 hPa 0 mm - - -
1788044087 25° C 97% 1014.6 hPa 0 mm - - -
1788043787 25° C 97% 1014.7 hPa 0 mm - - -
1788043588 25° C 97% 1014.8 hPa 0 mm - - -
1788043486 25° C 97% 1014.8 hPa 0 mm - - -
1788043186 25° C 97% 1014.8 hPa 0 mm - - -
1788042886 25° C 97% 1014.9 hPa 0 mm - - -
1788042585 25° C 97% 1014.8 hPa 0 mm - - -
1788042320 25° C 97% 1014.8 hPa 0 mm - - -
1788042285 25° C 97% 1014.8 hPa 0 mm - - -
1788041685 25° C 96% 1014.6 hPa 1.02 mm - - -
1788041384 25° C 96% 1014.6 hPa 2.03 mm - - -
1788041084 25° C 96% 1014.6 hPa 3.3 mm - - -
1788040784 25° C 97% 1014.6 hPa 4.32 mm - - -
1788040484 25° C 96% 1014.6 hPa 6.86 mm - - -
1788040184 25° C 97% 1014.6 hPa 6.86 mm - - -

* Rain latest hour (hover to see other rain measurements)
** Current wind speed in m/s (hover to see current wind gust speed)